owner,sensor,date,latitude,longitude,vertical_datum,direction_of_sea_water_velocity,sea_water_speed,upward_sea_water_velocity,qcFlag 
TABS,ioos:station:wmo:42049:1,2014-08-01T00:00:00Z,28.3507,-96.0058,2.0,33.29250328,17.98104001,-99999.0,'11111222,11111222,99999999' 
TABS,ioos:station:wmo:42049:1,2014-08-01T00:30:00Z,28.3507,-96.0058,2.0,28.45150005,14.94503262,-99999.0,'11111222,11111222,99999999' 
TABS,ioos:station:wmo:42049:1,2014-08-01T01:00:00Z,28.3507,-96.0058,2.0,23.65299019,12.58743024,-99999.0,'11111222,11111222,99999999' 
TABS,ioos:station:wmo:42049:1,2014-08-01T01:30:00Z,28.3507,-96.0058,2.0,19.80282565,5.696885114,-99999.0,'11133222,11111222,99999999' 
TABS,ioos:station:wmo:42049:1,2014-08-01T02:00:00Z,28.3507,-96.0058,2.0,17.04696348,9.790122573,-99999.0,'11133222,11111222,99999999' 
TABS,ioos:station:wmo:42049:1,2014-08-01T02:30:00Z,28.3507,-96.0058,2.0,18.52567142,14.00574525,-99999.0,'11111222,11111222,99999999' 
TABS,ioos:station:wmo:42049:1,2014-08-01T03:00:00Z,28.3507,-96.0058,2.0,14.41633869,17.19130303,-99999.0,'11111222,11111222,99999999' 
TABS,ioos:station:wmo:42049:1,2014-08-01T03:30:00Z,28.3507,-96.0058,2.0,15.12341315,19.43302601,-99999.0,'11111222,11111222,99999999' 
TABS,ioos:station:wmo:42049:1,2014-08-01T04:00:00Z,28.3507,-96.0058,2.0,13.09019274,20.70809021,-99999.0,'11111222,11111222,99999999' 
TABS,ioos:station:wmo:42049:1,2014-08-01T04:30:00Z,28.3507,-96.0058,2.0,14.30171404,17.28569929,-99999.0,'11111222,11111222,99999999' 
TABS,ioos:station:wmo:42049:1,2014-08-01T05:00:00Z,28.3507,-96.0058,2.0,6.315964684,20.7257907,-99999.0,'11111222,11111222,99999999' 
TABS,ioos:station:wmo:42049:1,2014-08-01T05:30:00Z,28.3507,-96.0058,2.0,13.10708185,19.88811203,-99999.0,'11111222,11111222,99999999' 
TABS,ioos:station:wmo:42049:1,2014-08-01T06:00:00Z,28.3507,-96.0058,2.0,12.99059969,20.46371423,-99999.0,'11111222,11111222,99999999' 
TABS,ioos:station:wmo:42049:1,2014-08-01T06:30:00Z,28.3507,-96.0058,2.0,11.26601654,22.93186647,-99999.0,'11111222,11111222,99999999' 
TABS,ioos:station:wmo:42049:1,2014-08-01T07:00:00Z,28.3507,-96.0058,2.0,21.86973166,21.85264286,-99999.0,'11111222,11111222,99999999' 
TABS,ioos:station:wmo:42049:1,2014-08-01T07:30:00Z,28.3507,-96.0058,2.0,19.92399746,23.12405674,-99999.0,'11111222,11111222,99999999' 
TABS,ioos:station:wmo:42049:1,2014-08-01T08:00:00Z,28.3507,-96.0058,2.0,24.88260897,21.62763048,-99999.0,'11111222,11111222,99999999' 
TABS,ioos:station:wmo:42049:1,2014-08-01T08:30:00Z,28.3507,-96.0058,2.0,25.32307746,25.78792353,-99999.0,'11111222,11111222,99999999' 
TABS,ioos:station:wmo:42049:1,2014-08-01T09:00:00Z,28.3507,-96.0058,2.0,24.96913939,26.01108994,-99999.0,'11111222,11111222,99999999' 
TABS,ioos:station:wmo:42049:1,2014-08-01T09:30:00Z,28.3507,-96.0058,2.0,28.13531843,27.42001641,-99999.0,'11111222,11111222,99999999' 
TABS,ioos:station:wmo:42049:1,2014-08-01T10:00:00Z,28.3507,-96.0058,2.0,27.44612875,25.01561312,-99999.0,'11111222,11111222,99999999' 
TABS,ioos:station:wmo:42049:1,2014-08-01T10:30:00Z,28.3507,-96.0058,2.0,27.51460027,25.91064067,-99999.0,'11111222,11111222,99999999' 
TABS,ioos:station:wmo:42049:1,2014-08-01T11:00:00Z,28.3507,-96.0058,2.0,34.52440557,22.47883449,-99999.0,'11111222,11111222,99999999' 
TABS,ioos:station:wmo:42049:1,2014-08-01T11:30:00Z,28.3507,-96.0058,2.0,44.37802712,13.02567465,-99999.0,'11111222,11111222,99999999' 
TABS,ioos:station:wmo:42049:1,2014-08-01T12:00:00Z,28.3507,-96.0058,2.0,38.75448173,23.6587954,-99999.0,'11111222,11111222,99999999' 
TABS,ioos:station:wmo:42049:1,2014-08-01T12:30:00Z,28.3507,-96.0058,2.0,40.03037612,21.22227603,-99999.0,'11111222,11111222,99999999' 
TABS,ioos:station:wmo:42049:1,2014-08-01T13:00:00Z,28.3507,-96.0058,2.0,39.84928642,18.50901672,-99999.0,'11111222,11111222,99999999' 
TABS,ioos:station:wmo:42049:1,2014-08-01T13:30:00Z,28.3507,-96.0058,2.0,35.71884588,16.92341573,-99999.0,'11111222,11111222,99999999' 
TABS,ioos:station:wmo:42049:1,2014-08-01T14:00:00Z,28.3507,-96.0058,2.0,39.91416709,15.55394805,-99999.0,'11111222,11111222,99999999' 
TABS,ioos:station:wmo:42049:1,2014-08-01T14:30:00Z,28.3507,-96.0058,2.0,47.68430586,14.6461087,-99999.0,'11111222,11111222,99999999' 
TABS,ioos:station:wmo:42049:1,2014-08-01T15:00:00Z,28.3507,-96.0058,2.0,46.69629153,12.42223812,-99999.0,'11111222,11111222,99999999' 
TABS,ioos:station:wmo:42049:1,2014-08-01T15:30:00Z,28.3507,-96.0058,2.0,47.83771578,11.42671431,-99999.0,'11111222,11111222,99999999' 
TABS,ioos:station:wmo:42049:1,2014-08-01T16:00:00Z,28.3507,-96.0058,2.0,50.87430703,13.05812008,-99999.0,'11111222,11111222,99999999' 
TABS,ioos:station:wmo:42049:1,2014-08-01T16:30:00Z,28.3507,-96.0058,2.0,43.1241937,10.15242336,-99999.0,'11111222,11111222,99999999' 
TABS,ioos:station:wmo:42049:1,2014-08-01T17:00:00Z,28.3507,-96.0058,2.0,61.63833267,8.273046597,-99999.0,'11133222,11111222,99999999' 
TABS,ioos:station:wmo:42049:1,2014-08-01T17:30:00Z,28.3507,-96.0058,2.0,68.96253817,8.078465201,-99999.0,'11133222,11111222,99999999' 
TABS,ioos:station:wmo:42049:1,2014-08-01T18:00:00Z,28.3507,-96.0058,2.0,65.28069763,8.608855905,-99999.0,'11133222,11111222,99999999' 
TABS,ioos:station:wmo:42049:1,2014-08-01T18:30:00Z,28.3507,-96.0058,2.0,80.06592576,8.984709233,-99999.0,'11133222,11111222,99999999' 
TABS,ioos:station:wmo:42049:1,2014-08-01T19:00:00Z,28.3507,-96.0058,2.0,72.2996136,8.880405396,-99999.0,'11133222,11111222,99999999' 
TABS,ioos:station:wmo:42049:1,2014-08-01T19:30:00Z,28.3507,-96.0058,2.0,58.46353331,6.347479815,-99999.0,'11133222,11111222,99999999' 
TABS,ioos:station:wmo:42049:1,2014-08-01T20:00:00Z,28.3507,-96.0058,2.0,46.02496274,7.906718662,-99999.0,'11133222,11111222,99999999' 
TABS,ioos:station:wmo:42049:1,2014-08-01T20:30:00Z,28.3507,-96.0058,2.0,50.46861491,7.494084334,-99999.0,'11133222,11111222,99999999' 
TABS,ioos:station:wmo:42049:1,2014-08-01T21:00:00Z,28.3507,-96.0058,2.0,38.76563971,6.771705841,-99999.0,'11133222,11111222,99999999' 
TABS,ioos:station:wmo:42049:1,2014-08-01T21:30:00Z,28.3507,-96.0058,2.0,34.46640666,11.87444736,-99999.0,'11111222,11111222,99999999' 
TABS,ioos:station:wmo:42049:1,2014-08-01T22:00:00Z,28.3507,-96.0058,2.0,40.16854863,9.906412065,-99999.0,'11133222,11111222,99999999' 
TABS,ioos:station:wmo:42049:1,2014-08-01T22:30:00Z,28.3507,-96.0058,2.0,50.57337062,9.101060378,-99999.0,'11133222,11111222,99999999' 
TABS,ioos:station:wmo:42049:1,2014-08-01T23:00:00Z,28.3507,-96.0058,2.0,38.65992831,10.94934245,-99999.0,'11111222,11111222,99999999' 
TABS,ioos:station:wmo:42049:1,2014-08-01T23:30:00Z,28.3507,-96.0058,2.0,39.92887529,10.71927236,-99999.0,'11111222,11111222,99999999' 
TABS,ioos:station:wmo:42049:1,2014-08-02T00:00:00Z,28.3507,-96.0058,2.0,44.28342004,9.610332981,-99999.0,'11133222,11111222,99999999' 
TABS,ioos:station:wmo:42049:1,2014-08-02T00:30:00Z,28.3507,-96.0058,2.0,44.54505913,9.793737795,-99999.0,'11133222,11111222,99999999' 
TABS,ioos:station:wmo:42049:1,2014-08-02T01:00:00Z,28.3507,-96.0058,2.0,41.00688733,8.123164408,-99999.0,'11133222,11111222,99999999' 
TABS,ioos:station:wmo:42049:1,2014-08-02T01:30:00Z,28.3507,-96.0058,2.0,25.20861324,4.155779109,-99999.0,'11133222,11111222,99999999' 
TABS,ioos:station:wmo:42049:1,2014-08-02T02:00:00Z,28.3507,-96.0058,2.0,44.73768426,4.631597996,-99999.0,'11133222,11111222,99999999' 
TABS,ioos:station:wmo:42049:1,2014-08-02T02:30:00Z,28.3507,-96.0058,2.0,43.28307125,9.20359169,-99999.0,'11133222,11111222,99999999' 
TABS,ioos:station:wmo:42049:1,2014-08-02T03:00:00Z,28.3507,-96.0058,2.0,39.10985809,8.750685687,-99999.0,'11133222,11111222,99999999' 
TABS,ioos:station:wmo:42049:1,2014-08-02T03:30:00Z,28.3507,-96.0058,2.0,48.12533578,9.46809907,-99999.0,'11133222,11111222,99999999' 
TABS,ioos:station:wmo:42049:1,2014-08-02T04:00:00Z,28.3507,-96.0058,2.0,41.80908543,10.03526283,-99999.0,'11111222,11111222,99999999' 
TABS,ioos:station:wmo:42049:1,2014-08-02T04:30:00Z,28.3507,-96.0058,2.0,49.98009318,10.26350817,-99999.0,'11111222,11111222,99999999' 
TABS,ioos:station:wmo:42049:1,2014-08-02T05:00:00Z,28.3507,-96.0058,2.0,48.27464442,11.38887176,-99999.0,'11111222,11111222,99999999' 
TABS,ioos:station:wmo:42049:1,2014-08-02T05:30:00Z,28.3507,-96.0058,2.0,46.2555182,12.26417547,-99999.0,'11111222,11111222,99999999' 
TABS,ioos:station:wmo:42049:1,2014-08-02T06:00:00Z,28.3507,-96.0058,2.0,46.33577206,10.92069595,-99999.0,'11111222,11111222,99999999' 
TABS,ioos:station:wmo:42049:1,2014-08-02T06:30:00Z,28.3507,-96.0058,2.0,47.08808418,8.151282108,-99999.0,'11133222,11111222,99999999' 
TABS,ioos:station:wmo:42049:1,2014-08-02T07:00:00Z,28.3507,-96.0058,2.0,43.58358763,7.15103489,-99999.0,'11133222,11111222,99999999' 
TABS,ioos:station:wmo:42049:1,2014-08-02T07:30:00Z,28.3507,-96.0058,2.0,54.79156089,6.070551869,-99999.0,'11133222,11111222,99999999' 
TABS,ioos:station:wmo:42049:1,2014-08-02T08:00:00Z,28.3507,-96.0058,2.0,70.43894572,4.987875299,-99999.0,'11133222,11111222,99999999' 
TABS,ioos:station:wmo:42049:1,2014-08-02T08:30:00Z,28.3507,-96.0058,2.0,18.54383643,3.333046654,-99999.0,'11133222,11111222,99999999' 
TABS,ioos:station:wmo:42049:1,2014-08-02T09:00:00Z,28.3507,-96.0058,2.0,37.16250988,3.526045944,-99999.0,'11133222,11111222,99999999' 
TABS,ioos:station:wmo:42049:1,2014-08-02T09:30:00Z,28.3507,-96.0058,2.0,43.67558641,4.894486694,-99999.0,'11133222,11111222,99999999' 
TABS,ioos:station:wmo:42049:1,2014-08-02T10:00:00Z,28.3507,-96.0058,2.0,34.96393364,4.990761465,-99999.0,'11133222,11111222,99999999' 
TABS,ioos:station:wmo:42049:1,2014-08-02T10:30:00Z,28.3507,-96.0058,2.0,27.90520416,7.649444424,-99999.0,'11133222,11111222,99999999' 
TABS,ioos:station:wmo:42049:1,2014-08-02T11:00:00Z,28.3507,-96.0058,2.0,36.61050639,3.974040765,-99999.0,'11133222,11111222,99999999' 
TABS,ioos:station:wmo:42049:1,2014-08-02T11:30:00Z,28.3507,-96.0058,2.0,358.743141,3.190767933,-99999.0,'11133222,11111222,99999999' 
TABS,ioos:station:wmo:42049:1,2014-08-02T12:00:00Z,28.3507,-96.0058,2.0,22.73957507,2.94923719,-99999.0,'11133222,11111222,99999999' 
TABS,ioos:station:wmo:42049:1,2014-08-02T12:30:00Z,28.3507,-96.0058,2.0,9.082158794,2.724151244,-99999.0,'11133222,11111222,99999999' 
TABS,ioos:station:wmo:42049:1,2014-08-02T13:00:00Z,28.3507,-96.0058,2.0,310.6992697,2.54568262,-99999.0,'11133222,11111222,99999999' 
TABS,ioos:station:wmo:42049:1,2014-08-02T13:30:00Z,28.3507,-96.0058,2.0,314.0851276,2.213526598,-99999.0,'11133222,11111222,99999999' 
TABS,ioos:station:wmo:42049:1,2014-08-02T14:00:00Z,28.3507,-96.0058,2.0,296.9717553,3.15293514,-99999.0,'11133222,11111222,99999999' 
TABS,ioos:station:wmo:42049:1,2014-08-02T14:30:00Z,28.3507,-96.0058,2.0,306.6273086,3.302029679,-99999.0,'11133222,11111222,99999999' 
TABS,ioos:station:wmo:42049:1,2014-08-02T15:00:00Z,28.3507,-96.0058,2.0,291.0014815,2.260132739,-99999.0,'11133222,11111222,99999999' 
TABS,ioos:station:wmo:42049:1,2014-08-02T15:30:00Z,28.3507,-96.0058,2.0,320.1767319,4.075414089,-99999.0,'11133222,11111222,99999999' 
TABS,ioos:station:wmo:42049:1,2014-08-02T16:00:00Z,28.3507,-96.0058,2.0,289.0666581,2.295952961,-99999.0,'11133222,11111222,99999999' 
TABS,ioos:station:wmo:42049:1,2014-08-02T16:30:00Z,28.3507,-96.0058,2.0,291.6151493,2.850438563,-99999.0,'11133222,11111222,99999999' 
TABS,ioos:station:wmo:42049:1,2014-08-02T17:00:00Z,28.3507,-96.0058,2.0,303.3974469,3.796972478,-99999.0,'11133222,11111222,99999999' 
TABS,ioos:station:wmo:42049:1,2014-08-02T17:30:00Z,28.3507,-96.0058,2.0,291.4196018,3.340733452,-99999.0,'11133222,11111222,99999999' 
TABS,ioos:station:wmo:42049:1,2014-08-02T18:00:00Z,28.3507,-96.0058,2.0,284.8005282,6.185208161,-99999.0,'11133222,11111222,99999999' 
TABS,ioos:station:wmo:42049:1,2014-08-02T18:30:00Z,28.3507,-96.0058,2.0,284.7112774,5.355557861,-99999.0,'11133222,11111222,99999999' 
TABS,ioos:station:wmo:42049:1,2014-08-02T19:00:00Z,28.3507,-96.0058,2.0,304.1904836,4.448865024,-99999.0,'11133222,11111222,99999999' 
TABS,ioos:station:wmo:42049:1,2014-08-02T19:30:00Z,28.3507,-96.0058,2.0,321.5067472,4.305728742,-99999.0,'11133222,11111222,99999999' 
TABS,ioos:station:wmo:42049:1,2014-08-02T20:00:00Z,28.3507,-96.0058,2.0,310.2707998,7.889892268,-99999.0,'11133222,11111222,99999999' 
TABS,ioos:station:wmo:42049:1,2014-08-02T20:30:00Z,28.3507,-96.0058,2.0,336.6673747,8.963001729,-99999.0,'11133222,11111222,99999999' 
TABS,ioos:station:wmo:42049:1,2014-08-02T21:00:00Z,28.3507,-96.0058,2.0,354.74642,8.736704184,-99999.0,'11133222,11111222,99999999' 
TABS,ioos:station:wmo:42049:1,2014-08-02T21:30:00Z,28.3507,-96.0058,2.0,0.639534475,11.6507253,-99999.0,'11111222,11111222,99999999' 
TABS,ioos:station:wmo:42049:1,2014-08-02T22:00:00Z,28.3507,-96.0058,2.0,358.7357326,10.42253808,-99999.0,'11111222,11111222,99999999' 
TABS,ioos:station:wmo:42049:1,2014-08-02T22:30:00Z,28.3507,-96.0058,2.0,349.5752716,10.66606769,-99999.0,'11111222,11111222,99999999' 
TABS,ioos:station:wmo:42049:1,2014-08-02T23:00:00Z,28.3507,-96.0058,2.0,356.5097763,12.48315665,-99999.0,'11111222,11111222,99999999' 
TABS,ioos:station:wmo:42049:1,2014-08-02T23:30:00Z,28.3507,-96.0058,2.0,359.7547293,11.67010711,-99999.0,'11111222,11144222,99999999' 
TABS,ioos:station:wmo:42049:1,2014-08-03T00:00:00Z,28.3507,-96.0058,2.0,1.063191281,10.24176254,-99999.0,'11111222,11111222,99999999' 
TABS,ioos:station:wmo:42049:1,2014-08-03T00:30:00Z,28.3507,-96.0058,2.0,8.574054988,9.860192696,-99999.0,'11133222,11111222,99999999' 
TABS,ioos:station:wmo:42049:1,2014-08-03T01:00:00Z,28.3507,-96.0058,2.0,352.7836477,6.209186742,-99999.0,'11133222,11111222,99999999' 
TABS,ioos:station:wmo:42049:1,2014-08-03T01:30:00Z,28.3507,-96.0058,2.0,6.740250795,3.322965543,-99999.0,'11133222,11111222,99999999' 
TABS,ioos:station:wmo:42049:1,2014-08-03T02:00:00Z,28.3507,-96.0058,2.0,352.1242971,6.057136287,-99999.0,'11133222,11111222,99999999' 
TABS,ioos:station:wmo:42049:1,2014-08-03T02:30:00Z,28.3507,-96.0058,2.0,9.31727474,3.891336531,-99999.0,'11133222,11111222,99999999' 
TABS,ioos:station:wmo:42049:1,2014-08-03T03:00:00Z,28.3507,-96.0058,2.0,9.847744405,2.689628227,-99999.0,'11133222,11111222,99999999' 
TABS,ioos:station:wmo:42049:1,2014-08-03T03:30:00Z,28.3507,-96.0058,2.0,27.42496049,3.278444753,-99999.0,'11133222,11111222,99999999' 
TABS,ioos:station:wmo:42049:1,2014-08-03T04:00:00Z,28.3507,-96.0058,2.0,19.59244653,2.50503493,-99999.0,'11133222,11111222,99999999' 
TABS,ioos:station:wmo:42049:1,2014-08-03T04:30:00Z,28.3507,-96.0058,2.0,355.4200092,3.631597445,-99999.0,'11133222,11111222,99999999' 
TABS,ioos:station:wmo:42049:1,2014-08-03T05:00:00Z,28.3507,-96.0058,2.0,340.8014081,4.743838109,-99999.0,'11133222,11111222,99999999' 
TABS,ioos:station:wmo:42049:1,2014-08-03T05:30:00Z,28.3507,-96.0058,2.0,349.8631947,4.886276701,-99999.0,'11133222,11111222,99999999' 
TABS,ioos:station:wmo:42049:1,2014-08-03T06:00:00Z,28.3507,-96.0058,2.0,347.9867424,5.909424676,-99999.0,'11133222,11111222,99999999' 
TABS,ioos:station:wmo:42049:1,2014-08-03T06:30:00Z,28.3507,-96.0058,2.0,353.4863758,5.465281329,-99999.0,'11133222,11111222,99999999' 
TABS,ioos:station:wmo:42049:1,2014-08-03T07:00:00Z,28.3507,-96.0058,2.0,350.7276304,5.461364298,-99999.0,'11133222,11111222,99999999' 
TABS,ioos:station:wmo:42049:1,2014-08-03T07:30:00Z,28.3507,-96.0058,2.0,348.3550153,5.697271277,-99999.0,'11133222,11111222,99999999' 
TABS,ioos:station:wmo:42049:1,2014-08-03T08:00:00Z,28.3507,-96.0058,2.0,339.1108355,5.833429523,-99999.0,'11133222,11111222,99999999' 
TABS,ioos:station:wmo:42049:1,2014-08-03T08:30:00Z,28.3507,-96.0058,2.0,339.8667095,6.507664712,-99999.0,'11133222,11111222,99999999' 
TABS,ioos:station:wmo:42049:1,2014-08-03T09:00:00Z,28.3507,-96.0058,2.0,349.6546662,6.292296878,-99999.0,'11133222,11111222,99999999' 
TABS,ioos:station:wmo:42049:1,2014-08-03T09:30:00Z,28.3507,-96.0058,2.0,358.3351083,5.162179772,-99999.0,'11133222,11111222,99999999' 
TABS,ioos:station:wmo:42049:1,2014-08-03T10:00:00Z,28.3507,-96.0058,2.0,356.7256713,8.053148453,-99999.0,'11133222,11111222,99999999' 
TABS,ioos:station:wmo:42049:1,2014-08-03T10:30:00Z,28.3507,-96.0058,2.0,351.6960355,8.377839817,-99999.0,'11133222,11111222,99999999' 
TABS,ioos:station:wmo:42049:1,2014-08-03T11:00:00Z,28.3507,-96.0058,2.0,21.73080451,4.510543205,-99999.0,'11133222,11111222,99999999' 
TABS,ioos:station:wmo:42049:1,2014-08-03T11:30:00Z,28.3507,-96.0058,2.0,3.490411752,7.884624278,-99999.0,'11133222,11111222,99999999' 
TABS,ioos:station:wmo:42049:1,2014-08-03T12:00:00Z,28.3507,-96.0058,2.0,8.152179073,7.404822753,-99999.0,'11133222,11111222,99999999' 
TABS,ioos:station:wmo:42049:1,2014-08-03T12:30:00Z,28.3507,-96.0058,2.0,355.4205997,8.015591057,-99999.0,'11133222,11111222,99999999' 
TABS,ioos:station:wmo:42049:1,2014-08-03T13:00:00Z,28.3507,-96.0058,2.0,14.54813894,7.603795105,-99999.0,'11133222,11111222,99999999' 
TABS,ioos:station:wmo:42049:1,2014-08-03T13:30:00Z,28.3507,-96.0058,2.0,18.13618508,9.091672013,-99999.0,'11133222,11111222,99999999' 
TABS,ioos:station:wmo:42049:1,2014-08-03T14:00:00Z,28.3507,-96.0058,2.0,20.9694284,8.438886182,-99999.0,'11133222,11111222,99999999' 
TABS,ioos:station:wmo:42049:1,2014-08-03T14:30:00Z,28.3507,-96.0058,2.0,26.11287487,8.497323108,-99999.0,'11133222,11111222,99999999' 
TABS,ioos:station:wmo:42049:1,2014-08-03T15:00:00Z,28.3507,-96.0058,2.0,20.62752625,7.522240358,-99999.0,'11133222,11111222,99999999' 
TABS,ioos:station:wmo:42049:1,2014-08-03T15:30:00Z,28.3507,-96.0058,2.0,19.28647482,7.236090104,-99999.0,'11133222,11111222,99999999' 
TABS,ioos:station:wmo:42049:1,2014-08-03T16:00:00Z,28.3507,-96.0058,2.0,25.63212817,6.865639082,-99999.0,'11133222,11111222,99999999' 
TABS,ioos:station:wmo:42049:1,2014-08-03T16:30:00Z,28.3507,-96.0058,2.0,19.87772362,6.029212221,-99999.0,'11133222,11111222,99999999' 
TABS,ioos:station:wmo:42049:1,2014-08-03T17:00:00Z,28.3507,-96.0058,2.0,25.14493729,5.954242185,-99999.0,'11133222,11111222,99999999' 
TABS,ioos:station:wmo:42049:1,2014-08-03T17:30:00Z,28.3507,-96.0058,2.0,23.17447919,6.200290316,-99999.0,'11133222,11111222,99999999' 
TABS,ioos:station:wmo:42049:1,2014-08-03T18:00:00Z,28.3507,-96.0058,2.0,12.54184119,4.835380026,-99999.0,'11133222,11111222,99999999' 
TABS,ioos:station:wmo:42049:1,2014-08-03T18:30:00Z,28.3507,-96.0058,2.0,13.62422933,5.731265131,-99999.0,'11133222,11111222,99999999' 
TABS,ioos:station:wmo:42049:1,2014-08-03T19:00:00Z,28.3507,-96.0058,2.0,6.60227525,6.523258388,-99999.0,'11133222,11111222,99999999' 
TABS,ioos:station:wmo:42049:1,2014-08-03T19:30:00Z,28.3507,-96.0058,2.0,10.23377947,6.472974587,-99999.0,'11133222,11111222,99999999' 
TABS,ioos:station:wmo:42049:1,2014-08-03T20:00:00Z,28.3507,-96.0058,2.0,11.10561178,6.593466463,-99999.0,'11133222,11111222,99999999' 
TABS,ioos:station:wmo:42049:1,2014-08-03T20:30:00Z,28.3507,-96.0058,2.0,342.8135215,5.516321238,-99999.0,'11133222,11111222,99999999' 
TABS,ioos:station:wmo:42049:1,2014-08-03T21:00:00Z,28.3507,-96.0058,2.0,343.3877332,6.960531589,-99999.0,'11133222,11111222,99999999' 
TABS,ioos:station:wmo:42049:1,2014-08-03T21:30:00Z,28.3507,-96.0058,2.0,353.9981871,4.303591523,-99999.0,'11133222,11111222,99999999' 
TABS,ioos:station:wmo:42049:1,2014-08-03T22:00:00Z,28.3507,-96.0058,2.0,2.045614165,6.724284349,-99999.0,'11133222,11111222,99999999' 
TABS,ioos:station:wmo:42049:1,2014-08-03T22:30:00Z,28.3507,-96.0058,2.0,352.0390691,6.714715184,-99999.0,'11133222,11111222,99999999' 
TABS,ioos:station:wmo:42049:1,2014-08-03T23:00:00Z,28.3507,-96.0058,2.0,5.520364044,7.484711083,-99999.0,'11133222,11111222,99999999' 
TABS,ioos:station:wmo:42049:1,2014-08-03T23:30:00Z,28.3507,-96.0058,2.0,19.26233629,6.790117819,-99999.0,'11133222,11111222,99999999' 
TABS,ioos:station:wmo:42049:1,2014-08-04T00:00:00Z,28.3507,-96.0058,2.0,12.31245307,7.175026132,-99999.0,'11133222,11111222,99999999' 
TABS,ioos:station:wmo:42049:1,2014-08-04T00:30:00Z,28.3507,-96.0058,2.0,4.208074291,6.678001198,-99999.0,'11133222,11111222,99999999' 
TABS,ioos:station:wmo:42049:1,2014-08-04T01:00:00Z,28.3507,-96.0058,2.0,25.55545503,9.643422629,-99999.0,'11133222,11111222,99999999' 
TABS,ioos:station:wmo:42049:1,2014-08-04T01:30:00Z,28.3507,-96.0058,2.0,20.81618103,4.643070105,-99999.0,'11133222,11111222,99999999' 
TABS,ioos:station:wmo:42049:1,2014-08-04T02:00:00Z,28.3507,-96.0058,2.0,17.49372315,5.389248556,-99999.0,'11133222,11111222,99999999' 
TABS,ioos:station:wmo:42049:1,2014-08-04T02:30:00Z,28.3507,-96.0058,2.0,25.1181434,10.27129982,-99999.0,'11111222,11111222,99999999' 
TABS,ioos:station:wmo:42049:1,2014-08-04T04:30:00Z,28.3507,-96.0058,2.0,34.59241825,8.102400879,-99999.0,'11133222,11111222,99999999' 
TABS,ioos:station:wmo:42049:1,2014-08-04T05:00:00Z,28.3507,-96.0058,2.0,43.11192164,3.219083721,-99999.0,'11133222,11111222,99999999' 
TABS,ioos:station:wmo:42049:1,2014-08-04T05:30:00Z,28.3507,-96.0058,2.0,36.0274996,3.808411742,-99999.0,'11133222,11111222,99999999' 
TABS,ioos:station:wmo:42049:1,2014-08-04T06:00:00Z,28.3507,-96.0058,2.0,24.38071043,5.983594238,-99999.0,'11133222,11111222,99999999' 
TABS,ioos:station:wmo:42049:1,2014-08-04T06:30:00Z,28.3507,-96.0058,2.0,31.78105123,4.329064564,-99999.0,'11133222,11111222,99999999' 
TABS,ioos:station:wmo:42049:1,2014-08-04T07:00:00Z,28.3507,-96.0058,2.0,91.01999275,3.370534082,-99999.0,'11133222,11111222,99999999' 
TABS,ioos:station:wmo:42049:1,2014-08-04T07:30:00Z,28.3507,-96.0058,2.0,19.7224421,1.126055061,-99999.0,'11133222,11111222,99999999' 
TABS,ioos:station:wmo:42049:1,2014-08-04T08:00:00Z,28.3507,-96.0058,2.0,355.2867073,4.74605099,-99999.0,'11133222,11111222,99999999' 
TABS,ioos:station:wmo:42049:1,2014-08-04T08:30:00Z,28.3507,-96.0058,2.0,357.669697,6.885695317,-99999.0,'11133222,11111222,99999999' 
TABS,ioos:station:wmo:42049:1,2014-08-04T09:00:00Z,28.3507,-96.0058,2.0,358.9951268,6.270964838,-99999.0,'11133222,11111222,99999999' 
TABS,ioos:station:wmo:42049:1,2014-08-04T09:30:00Z,28.3507,-96.0058,2.0,355.6085257,6.268404901,-99999.0,'11133222,11111222,99999999' 
TABS,ioos:station:wmo:42049:1,2014-08-04T10:00:00Z,28.3507,-96.0058,2.0,6.873224325,6.768640927,-99999.0,'11133222,11111222,99999999' 
TABS,ioos:station:wmo:42049:1,2014-08-04T10:30:00Z,28.3507,-96.0058,2.0,348.6138083,7.344555807,-99999.0,'11133222,11111222,99999999' 
TABS,ioos:station:wmo:42049:1,2014-08-04T11:00:00Z,28.3507,-96.0058,2.0,348.0351096,1.543534904,-99999.0,'11133222,11111222,99999999' 
TABS,ioos:station:wmo:42049:1,2014-08-04T11:30:00Z,28.3507,-96.0058,2.0,355.7475914,3.910767188,-99999.0,'11133222,11111222,99999999' 
TABS,ioos:station:wmo:42049:1,2014-08-04T12:00:00Z,28.3507,-96.0058,2.0,352.3186804,7.406463394,-99999.0,'11133222,11111222,99999999' 
TABS,ioos:station:wmo:42049:1,2014-08-04T12:30:00Z,28.3507,-96.0058,2.0,9.044855843,7.442539889,-99999.0,'11133222,11111222,99999999' 
TABS,ioos:station:wmo:42049:1,2014-08-04T13:00:00Z,28.3507,-96.0058,2.0,358.7377009,7.261762871,-99999.0,'11133222,11111222,99999999' 
TABS,ioos:station:wmo:42049:1,2014-08-04T13:30:00Z,28.3507,-96.0058,2.0,0.291048801,7.880101522,-99999.0,'11133222,11111222,99999999' 
TABS,ioos:station:wmo:42049:1,2014-08-04T14:00:00Z,28.3507,-96.0058,2.0,1.978548075,5.793453202,-99999.0,'11133222,11111222,99999999' 
TABS,ioos:station:wmo:42049:1,2014-08-04T14:30:00Z,28.3507,-96.0058,2.0,353.9043632,5.179285665,-99999.0,'11133222,11111222,99999999' 
TABS,ioos:station:wmo:42049:1,2014-08-04T15:00:00Z,28.3507,-96.0058,2.0,337.7697556,5.207043307,-99999.0,'11133222,11111222,99999999' 
TABS,ioos:station:wmo:42049:1,2014-08-04T15:30:00Z,28.3507,-96.0058,2.0,327.2650607,3.994396075,-99999.0,'11133222,11111222,99999999' 
TABS,ioos:station:wmo:42049:1,2014-08-04T16:00:00Z,28.3507,-96.0058,2.0,338.5273246,2.26737734,-99999.0,'11133222,11111222,99999999' 
TABS,ioos:station:wmo:42049:1,2014-08-04T16:30:00Z,28.3507,-96.0058,2.0,307.7597425,3.478419181,-99999.0,'11133222,11111222,99999999' 
TABS,ioos:station:wmo:42049:1,2014-08-04T17:00:00Z,28.3507,-96.0058,2.0,318.915947,4.245479949,-99999.0,'11133222,11111222,99999999' 